Flag for Taiwan Weather past 2 weeks in Kaohsiung, Taiwan

Now
82 °F

Partly cloudy.


Feels Like: 92 °F
Forecast: 78 / 87 °F
Wind: 6 mph from West

Location: Kaohsiung International Airport

Current Time: May 28, 2015 at 12:31:48 AM

Latest Report: May 27, 2015 at 11:30 PM


Visibility: N/A

Pressure: 29.77 "Hg

Humidity: 89%

Dew point: 79 °F

Location of KaohsiungLocation

Historic Weather in Kaohsiung — Graph

°F

Kaohsiung temperature yesterday

Maximum temperature yesterday: 90 °F (at 2:00 PM)
Minimum temperature yesterday: 77 °F (at 1:00 AM)
Average temperature yesterday: 83 °F

Past Weeks' High & Low Weather Summary

 TemperatureHumidityPressure
High91 °F (May 19, 1:00 PM)100% (May 21, 4:00 AM)29.98 "Hg (May 21, 4:00 AM)
Low75 °F (May 21, 2:00 AM)58% (May 21, 3:00 PM)29.71 "Hg (May 23, 3:55 PM)
Average82 °F83%29.82 "Hg
* Reported May 12 11:00 PM — May 27 11:00 PM, Kaohsiung, Weather by CustomWeather, © 2015

Note: Actual official high and low records may vary slightly from our data, if they occured in-between our weather recording intervals... More about our weather records

Advertising

Kaohsiung weather history for previous 24 hours

 ConditionsComfort  
Time TempWeatherWind HumidityBarometerVisibility
11:00 PM
Wed, May 27
82 °FPartly cloudy.6 mph89%29.77 "HgN/A
10:30 PM82 °FPartly cloudy.6 mph89%29.80 "HgN/A
10:00 PM82 °FPartly cloudy.7 mph89%29.80 "HgN/A
9:30 PM82 °FPartly cloudy.6 mph89%29.80 "HgN/A
9:00 PM82 °FPartly cloudy.6 mph84%29.77 "HgN/A
8:30 PM82 °FPartly cloudy.3 mph89%29.77 "HgN/A
8:00 PM84 °FPartly cloudy.6 mph84%29.77 "HgN/A
7:30 PM82 °FPartly cloudy.6 mph84%29.77 "HgN/A
7:00 PM84 °FPartly cloudy.7 mph84%29.77 "HgN/A
6:30 PM84 °FScattered showers. Broken clouds.7 mph79%29.77 "HgN/A
6:00 PM84 °FScattered showers. Broken clouds.6 mph79%29.77 "HgN/A
5:30 PM86 °FBroken clouds.7 mph79%29.77 "HgN/A
5:00 PM86 °FScattered showers. Broken clouds.7 mph75%29.74 "HgN/A
4:30 PM86 °FScattered showers. Broken clouds.10 mph75%29.74 "HgN/A
4:00 PM88 °FBroken clouds.10 mph70%29.77 "HgN/A
3:30 PM88 °FBroken clouds.9 mph70%29.77 "HgN/A
3:00 PM88 °FBroken clouds.10 mph75%29.77 "HgN/A
2:30 PM90 °FBroken clouds.9 mph67%29.77 "HgN/A
2:00 PM90 °FBroken clouds.9 mph63%29.77 "HgN/A
1:30 PM88 °FBroken clouds.8 mph66%29.77 "HgN/A
1:00 PM86 °FBroken clouds.9 mph70%29.80 "HgN/A
12:30 PM86 °FBroken clouds.9 mph70%29.80 "HgN/A
12:00 PM88 °FBroken clouds.7 mph66%29.83 "HgN/A
11:30 AM88 °FBroken clouds.8 mph70%29.83 "HgN/A
10:30 AM84 °FBroken clouds.9 mph74%29.83 "HgN/A
10:00 AM84 °FBroken clouds.7 mph79%29.83 "HgN/A
9:30 AM84 °FBroken clouds.5 mph79%29.83 "HgN/A
9:00 AM84 °FBroken clouds.6 mph79%29.83 "HgN/A
8:30 AM84 °FBroken clouds.1 mph74%29.83 "HgN/A
8:00 AM81 °FBroken clouds.3 mph84%29.83 "HgN/A
7:30 AM81 °FBroken clouds.3 mph84%29.83 "HgN/A
7:00 AM79 °FBroken clouds.3 mph94%29.83 "HgN/A
6:30 AM77 °FBroken clouds.2 mph100%29.83 "HgN/A
6:00 AM77 °FPartly sunny.No wind94%29.83 "HgN/A
5:00 AM77 °FPartly cloudy.No wind94%29.83 "HgN/A
4:00 AM77 °FPartly cloudy.3 mph94%29.80 "HgN/A
3:00 AM77 °FSprinkles. Mostly cloudy.5 mph100%29.80 "Hg3 mi
2:00 AM77 °FSprinkles. Mostly cloudy.5 mph100%29.83 "Hg2 mi
1:00 AM77 °FSprinkles. Overcast.2 mph100%29.83 "Hg2 mi
12:00 AM79 °FSprinkles. Overcast.3 mph94%29.86 "Hg4 mi
Weather by CustomWeather, © 2015

See weather overviewHow to use our weather pages